Regional Weather Roundup
Issued by NWS

Home | Current Version | Previous Version | Text Only | Print | Product List | Glossary Off
Versions: 1 2 3 4 5 6 7 8 9 10 11 12 13 14 15 16 17 18 19 20 21 22 23 24 25 26 27 28 29 30 31 32 33 34 35 36 37 38 39 40 41 42 43 44 45 46 47 48 49 50

000
ASUS44 KMEG 300600
RWRTN
TENNESSEE HOURLY STATE WEATHER ROUNDUP
NATIONAL WEATHER SERVICE MEMPHIS TN
100 AM CDT MON MAY 30 2016

TNZ002-004-019-021-049-052-054-088>092-300700-
WEST TENNESSEE

CITY           SKY/WX    TMP DP  RH WIND       PRES   REMARKS
MEMPHIS INTL   PTCLDY    74  69  85 CALM      30.05F
NWS MEMPHIS      N/A     71 N/A N/A MISG        N/A
JACKSON        CLOUDY    72  68  87 CALM      30.05S
DYERSBURG      CLEAR     70  66  88 CALM      30.05F
UNION CITY     CLEAR     72  68  88 CALM      30.04F
PARIS          CLEAR     64  63  94 CALM      30.06S
LEXINGTON      PTCLDY    70  68  94 CALM      30.05R
$$

TNZ008-025-027-028-033-062-065-066-300700-
NORTH MIDDLE TENNESSEE

CITY           SKY/WX    TMP DP  RH WIND       PRES   REMARKS
NASHVILLE      CLOUDY    71  65  81 CALM      30.04S
CLARKSVILLE    CLEAR     69  65  86 W3        30.05R
COOKEVILLE     CLEAR     64  63  94 CALM      30.04F
CROSSVILLE     CLEAR     64  61  90 W5        30.09F
$$

TNZ061-075-076-078-094-096-097-300700-
SOUTH MIDDLE TENNESSEE

CITY           SKY/WX    TMP DP  RH WIND       PRES   REMARKS
TULLAHOMA      PTCLDY    66  64  94 CALM      30.07S
WINCHESTER     PTCLDY    64  63  94 CALM      30.06S
SHELBYVILLE    CLEAR     68  66  94 CALM      30.06S
$$

TNZ017-018-042-046-047-300700-
NORTHEAST TENNESSEE

CITY           SKY/WX    TMP DP  RH WIND       PRES   REMARKS
TRI CITIES     CLEAR     59  57  93 CALM      30.08F
$$

TNZ012-013-036-069-073-074-300700-
CENTRAL EAST TENNESSEE

CITY           SKY/WX    TMP DP  RH WIND       PRES   REMARKS
KNOXVILLE      CLEAR     65  64  97 CALM      30.03F FOG
OAK RIDGE      CLEAR     67  64  90 CALM      30.05F
GATLINBURG     CLEAR     63  63 100 CALM      30.05F
$$

TNZ083-085-099-300700-
SOUTHEAST TENNESSEE

CITY           SKY/WX    TMP DP  RH WIND       PRES   REMARKS
CHATTANOOGA    CLEAR     71  64  78 CALM      30.03S
$$

SKY/WX REPORTED AS FAIR MEANS FEW OR NO CLOUDS BELOW
12 THOUSAND FEET.





USA.gov is the U.S. government's official web portal to all federal, state and local government web resources and services.